AirNav   Everest Fuels
 
 1178 users online  

6G8 Shamrock Field Airport
Brooklyn, Michigan, USA

GOING TO BROOKLYN?


FAA INFORMATION EFFECTIVE 16 JULY 2020

Location

FAA Identifier: 6G8
Lat/Long: 42-05-39.1750N 084-14-27.4250W
42-05.652917N 084-14.457083W
42.0942153,-84.2409514
(estimated)
Elevation: 987 ft. / 301 m (estimated)
Variation: 05W (1985)
From city: 1 mile SE of BROOKLYN, MI
Time zone: UTC -4 (UTC -5 during Standard Time)
Zip code: 49230

Airport Operations

Airport use: Open to the public
Activation date: 12/1975
Control tower: no
ARTCC: CLEVELAND CENTER
FSS: LANSING FLIGHT SERVICE STATION
NOTAMs facility: LAN (NOTAM-D service available)
Attendance: MAY-NOV IREG
ARPT CLOSED DEC-APR.
Wind indicator: lighted
Segmented circle: yes
Lights: ACTVT LIRL RWY 01/19 - CTAF.
Landing fee: yes, OVERNIGHT FEE.

Airport Communications

CTAF: 122.9
WX ASOS at JXN (14 nm NW): 122.725 (517-768-7506)
WX ASOS at ADG (15 nm SE): 118.375 (517-265-9089)
WX AWOS-3 at JYM (19 nm SW): 121.025 (517-437-5638)

Nearby radio navigation aids

VOR radial/distance  VOR name  Freq  Var
LFDr090/23.4LITCHFIELD VOR/DME111.2005W
SVMr240/34.4SALEM VORTAC114.3003W
CRLr278/35.0CARLETON VOR/DME115.7003W
DXOr266/39.5DETROIT VOR/DME113.4006W

 
NDB name  Hdg/Dist  Freq  Var  ID
ADRIAN338/15.327806WADG .- -.. --.
TECUMSEH289/16.223906WTCU - -.-. ..-

Airport Services

Parking: hangars and tiedowns

Runway Information

Runway 1/19

Dimensions: 2822 x 100 ft. / 860 x 30 m
Surface: turf, in fair condition
Runway edge lights: low intensity
LIRL OTS INDEFLY.
Runway edge markings: 01/19 MKD WITH 3 FT YELLOW CONES; DSPLCD THLD MKD WITH 3 CONES EACH SIDE.
RUNWAY 1  RUNWAY 19
Latitude: 42-05.423167N42-05.882667N
Longitude: 084-14.503167W084-14.411000W
Elevation: 980.0 ft.981.0 ft.
Traffic pattern: rightleft
Runway heading: 013 magnetic, 008 true193 magnetic, 188 true
Displaced threshold: no613 ft.
Obstructions: 57 ft. tree, 804 ft. from runway, 65 ft. left of centerline, 14:1 slope to clear105 ft. pline, marked, 1494 ft. from runway, 14:1 slope to clear

Airport Ownership and Management from official FAA records

Ownership: Privately-owned
Owner: CRAIG PEARSON
9237 WAMPLERS LAKE RD
BROOKLYN, MI 49230
Phone 586-646-8199
Manager: CRAIG PEARSON
9237 WAMPLERS LAKE RD
BROOKLYN, MI 49230
Phone 586-646-8199

Airport Operational Statistics

Aircraft based on the field: 2
Single engine airplanes: 2
    
Aircraft operations: avg 46/month *
91% transient general aviation
9% local general aviation
* for 12-month period ending 31 December 2017

Additional Remarks

105 FT MARKED PLINE AND TWR, 1/4 MILE FM THLD, EXTDD L & R OF CNTRLN RWY 19.
DEER & BIRDS ON & INVOF OF ARPT.
ADMIN BLDG ACCESS, 1-2-2-9.
FOR CD CTC GREAT LAKES APCH AT 269-459-3345, WHEN APCH CLSD CTC CLEVELAND ARTCC AT 440-774-0229/0490.

Instrument Procedures

There are no published instrument procedures at 6G8.

Some nearby airports with instrument procedures:

KJXN - Jackson County Airport-Reynolds Field (14 nm NW)
KADG - Lenawee County Airport (15 nm SE)
KJYM - Hillsdale Municipal Airport (19 nm SW)
KARB - Ann Arbor Municipal Airport (23 nm E)
KTEW - Mason Jewett Field Airport (29 nm N)
 
Loc | Ops | Rwys | IFR | FBO | Links
Com | Nav | Svcs | Stats | Notes
Area around 6G8 (Shamrock Field Airport)
 
Road maps at: MapQuest Bing Google
 
Aerial photo
WARNING: Photo may not be current or correct
Aerial photo of 6G8 (Shamrock Field Airport)
Credit: M. Coleman - LocalHangar.com

Do you have a better or more recent aerial photo of Shamrock Field Airport that you would like to share? If so, please send us your photo.

 
Sectional chart

 
Airport distance calculator
Flying to Shamrock Field Airport? Find the distance to fly.

From to 6G8

Sunrise and sunset
Times for 08-Aug-2020
 Local
(UTC-4)
 Zulu
(UTC)
Morning civil twilight06:0910:09
Sunrise06:3910:39
Sunset20:4600:46
Evening civil twilight21:1601:16

Current date and time
Zulu (UTC)  08-Aug-2020 17:33:06
Local (UTC-4)  08-Aug-2020 13:33:06
 
METAR
KJXN 
14nm NW 
081656Z 20007KT 10SM CLR 26/13 A3020 RMK AO2 SLP223 T02610128
KADG 
15nm SE 
081653Z AUTO 23006KT 10SM CLR 27/12 A3021 RMK AO2 SLP229 T02670122 TSNO
KJYM 
19nm SW 
081715Z AUTO 20005KT 10SM BKN100 OVC120 26/15 A3020 RMK AO2 T02560146
KARB 
24nm E 
734-668-7173
081653Z VRB04KT 10SM FEW055 26/14 A3020 RMK AO2 SLP224 T02610139 $
TAF
KJXN 
14nm NW 
081130Z 0812/0912 17008KT P6SM SKC FM090000 20010KT P6SM BKN100
NOTAMs
Click for the latest NOTAMs
NOTAMs are issued by the DoD/FAA and will open in a separate window not controlled by AirNav.

 

 
 

Would you like to see your business listed on this page?

 If your business provides an interesting product or service to pilots, flight crews, aircraft, or users of the Shamrock Field Airport, you should consider listing it here.  To start the listing process, click on the button below
 
Add a business
 

Other Pages about Shamrock Field Airport

Page from the Michigan Airport Directory (PDF)
 
Update a link
 
Copyright © AirNav, LLC. All rights reserved. Privacy Policy  Contact